Location: Allen Fire Department Station 4
(33.1073°N, 96.6988°W)
Time: 22:47:31
(UTC+00:00)

Aurora 2 Rocket - Pass Details

Date: 03 July 2022
Orbit: 389 x 1718 km, 25.0° (Epoch: 15 August)

Event Time Altitude Azimuth Distance (km) Brightness Sun altitude
Rises 03:07:35 0° 236° (WSW) 4,854 7.3 -15.9°
Reaches altitude 10° 03:11:27 10° 229° (SW) 3,738 6.6 -16.5°
Maximum altitude 03:19:53 35° 169° (SSE) 1,979 4.7 -17.8°
Enters shadow 03:22:48 27° 131° (SE) 2,111 4.6 -18.2°
